Lapse_Rate
6.1 6.2 6.2 6.3 6.5 6.5 6.5 6.5 6.8 6.8 6.6 6.7 6.3 6.3 6.3 6.3 6.3 6.6 6.6 6.6 6.4 6.2 6.3 6.3 6.5 6.3 6.3 6.4 6.4 6.3 6.2 6.2 6.2 6.1 6.2 6.2 6.3 6.2 6.3 6.6 6.5 6.4 6.4 6.5 6.7
6.1 6.2 6.2 6.3 6.4 6.5 6.6 6.6 6.7 7.0 6.7 6.6 6.3 6.2 6.3 6.3 6.5 6.5 6.4 6.5 6.5 6.5 6.3 6.6 6.3 6.7 6.7 6.8 6.4 6.1 6.2 6.2 6.3 6.4 6.3 6.2 6.2 6.0 6.2 6.4 6.3 6.1 6.4 6.4 6.5
6.1 6.2 6.3 6.3 6.4 6.4 6.5 6.6 6.6 6.9 6.8 6.7 6.4 6.2 6.3 6.3 6.6 6.5 6.5 6.3 6.3 6.2 6.3 6.4 6.8 6.8 6.9 6.9 6.7 6.7 6.5 6.5 6.5 6.2 6.3 6.3 6.1 6.1 6.2 6.2 6.3 6.7 6.7 6.4 6.3
6.1 6.2 6.3 6.3 6.3 6.4 6.5 6.6 6.7 6.7 6.7 6.8 6.4 6.2 6.3 6.4 6.6 6.3 6.5 6.5 6.4 6.4 6.2 6.7 6.4 6.7 6.8 6.7 6.8 6.6 6.5 6.2 6.0 6.3 6.3 6.3 6.3 6.1 6.0 6.2 6.4 6.1 6.2 6.5 6.2
6.2 6.2 6.3 6.4 6.4 6.4 6.4 6.5 6.6 6.5 6.7 6.7 6.4 6.2 6.3 6.3 6.2 6.2 6.3 6.6 6.6 6.4 6.4 6.4 6.5 6.6 6.9 6.9 6.9 7.0 6.7 6.1 6.0 6.2 6.2 6.2 6.1 6.4 6.4 6.3 6.5 6.3 6.1 6.1 6.1
6.3 6.3 6.3 6.4 6.4 6.4 6.4 6.4 6.5 6.4 6.6 6.7 6.2 6.4 6.2 6.2 6.1 6.0 6.1 6.4 6.5 6.5 6.3 6.4 6.3 6.7 6.9 7.0 7.1 6.9 6.9 6.3 6.1 6.1 6.1 6.1 6.3 6.2 6.4 6.4 6.4 6.3 6.1 6.1 6.1
6.3 6.4 6.4 6.5 6.5 6.4 6.4 6.4 6.4 6.4 6.5 6.5 6.4 6.3 6.0 6.1 6.0 6.2 6.2 6.3 6.3 6.3 6.3 6.1 6.3 6.7 6.6 6.7 6.7 7.0 7.0 6.5 6.2 6.0 6.0 6.0 6.3 6.2 6.2 6.3 6.2 6.2 6.1 6.1 6.1
6.3 6.4 6.4 6.5 6.4 6.4 6.3 6.3 6.4 6.5 6.4 6.5 6.4 6.3 6.1 6.0 5.9 6.2 6.4 6.5 6.5 6.6 6.5 6.5 6.3 6.6 6.4 6.5 6.7 6.7 6.8 6.2 6.3 6.3 6.2 6.1 6.2 6.4 6.2 6.1 5.9 5.8 5.7 5.9 6.0
6.3 6.4 6.4 6.4 6.4 6.4 6.3 6.3 6.4 6.5 6.3 6.4 6.4 6.3 6.2 6.0 6.0 6.2 6.2 6.2 6.2 6.5 6.8 6.5 6.5 6.8 6.7 6.5 6.7 6.8 6.7 6.7 6.7 6.8 6.6 6.6 6.5 6.6 6.5 6.3 6.0 5.8 5.7 5.3 5.4
6.2 6.3 6.4 6.3 6.3 6.3 6.3 6.3 6.2 6.3 6.2 6.3 6.4 6.4 6.2 6.1 6.3 6.4 6.4 6.3 6.3 6.3 6.1 6.2 6.6 6.7 6.8 6.9 6.7 6.8 6.7 6.8 6.3 6.3 6.4 6.5 6.4 6.3 6.2 6.0 5.8 5.7 5.6 5.3 5.2
6.2 6.2 6.2 6.3 6.3 6.3 6.2 6.3 6.2 6.2 6.2 6.2 6.3 6.3 6.3 6.3 6.2 6.3 6.5 6.6 6.4 6.3 6.2 6.3 6.5 6.5 6.5 6.5 6.8 6.7 6.6 7.0 6.7 6.5 6.2 6.0 6.0 6.1 6.1 6.1 6.0 5.9 5.6 5.5 5.3
6.2 6.2 6.2 6.3 6.4 6.2 6.2 6.2 6.1 6.2 6.2 6.2 6.1 6.1 6.1 6.1 6.3 6.3 6.5 6.6 6.6 6.5 6.6 6.9 7.1 7.1 6.8 7.5 7.0 7.0 6.7 6.7 6.9 6.7 6.5 6.4 6.5 6.3 6.3 6.4 6.3 6.2 6.1 5.7 5.3
6.1 6.2 6.1 6.3 6.3 6.2 6.1 6.1 6.0 6.2 6.3 6.2 6.1 6.2 6.2 6.0 6.0 6.6 6.9 6.6 6.6 6.8 7.1 7.2 7.1 7.2 7.2 7.2 7.0 7.3 7.3 7.2 6.8 6.6 6.6 6.5 7.0 7.0 6.6 6.3 6.3 6.2 6.1 5.9 5.7
6.2 6.2 6.2 6.3 6.2 6.2 6.2 6.2 6.2 6.3 6.4 6.4 6.0 6.0 6.1 6.1 6.0 6.0 6.1 6.4 6.8 7.1 7.0 7.2 7.5 7.5 7.6 7.7 7.4 6.7 7.0 7.0 6.9 6.5 6.5 6.5 6.5 7.0 7.2 7.1 6.6 6.4 6.4 6.3 6.0
6.2 6.3 6.3 6.3 6.3 6.3 6.1 6.1 6.2 6.4 6.6 6.5 6.1 6.2 6.1 6.2 6.4 6.4 6.3 6.3 6.6 6.8 7.0 7.2 7.3 7.6 7.8 7.7 7.5 7.5 7.3 7.1 6.9 6.8 6.6 6.4 6.8 7.7 7.8 8.0 7.8 7.2 6.7 6.5 6.4
6.2 6.3 6.3 6.3 6.3 6.3 6.3 6.1 6.3 6.3 6.3 6.5 6.3 6.3 6.3 6.4 6.5 6.5 6.3 6.6 6.8 6.5 6.5 6.8 7.3 7.3 7.9 7.6 7.7 7.8 7.6 7.2 6.9 6.5 6.7 6.9 6.8 8.0 8.3 8.4 8.3 8.1 7.5 7.0 6.7
6.2 6.3 6.2 6.2 6.2 6.2 6.1 6.1 6.3 6.4 6.5 6.5 6.5 6.5 6.5 6.5 6.5 6.7 6.4 6.6 6.7 6.7 7.1 7.7 7.9 7.9 7.9 7.6 7.9 8.1 8.0 8.0 7.3 6.8 7.7 6.7 5.8 7.8 8.3 8.3 8.5 8.4 8.3 7.9 7.5
6.2 6.3 6.3 6.3 6.3 6.3 6.2 6.2 6.3 6.5 6.5 6.6 6.8 6.8 6.8 6.8 6.8 6.9 6.9 6.8 6.8 6.8 7.1 7.4 7.8 8.3 8.5 8.2 8.3 8.6 8.0 8.4 8.2 8.0 7.9 6.9 6.7 7.8 8.3 8.2 8.5 8.8 8.7 8.4 8.0
6.1 6.2 6.3 6.2 6.2 6.2 6.2 6.2 6.6 6.5 6.6 6.8 7.1 7.2 7.1 7.1 7.1 7.2 7.2 7.4 7.4 7.5 7.1 7.4 7.3 8.0 8.0 7.9 8.1 7.8 7.6 8.1 8.0 7.3 7.3 7.4 7.6 7.9 8.2 8.2 8.4 8.6 8.7 8.7 8.3
5.7 5.8 5.9 6.0 6.2 6.3 6.4 6.6 6.5 6.6 6.8 7.0 7.1 7.2 7.4 7.5 7.5 7.6 7.7 7.6 7.6 7.7 7.8 7.8 7.7 8.2 8.1 7.8 7.8 7.8 8.3 8.2 8.1 8.3 8.0 8.0 7.2 8.7 8.6 8.6 8.6 8.4 8.4 8.6 8.5
5.3 5.4 5.5 5.8 5.9 6.1 6.4 6.7 6.8 6.9 7.0 7.2 7.3 7.4 7.5 7.8 7.8 7.9 7.9 7.7 7.8 7.9 8.1 8.2 8.2 8.6 8.4 8.2 8.3 8.1 8.0 8.2 8.3 7.9 8.8 8.9 8.8 9.0 9.1 8.9 8.7 8.6 8.6 8.5 8.3
5.4 5.4 5.5 5.7 5.8 5.8 6.2 6.7 7.1 7.0 7.2 7.3 7.4 7.6 7.7 7.8 7.9 7.9 7.8 7.8 7.9 8.1 8.2 8.2 8.0 8.0 8.4 8.6 8.6 8.5 8.3 8.4 8.3 8.3 7.7 8.0 8.2 8.9 9.1 9.2 9.3 9.3 9.0 8.5 8.1
5.4 5.4 5.5 5.7 5.6 5.8 6.1 6.4 6.9 7.3 7.4 7.5 7.6 7.7 7.9 8.2 8.2 8.1 8.1 8.1 8.1 8.2 8.2 8.3 8.0 8.1 8.4 8.5 8.7 8.7 8.7 8.6 8.6 8.5 8.4 9.0 9.0 9.2 9.3 9.3 9.3 9.0 8.8 8.5 8.3
5.3 5.4 5.6 5.6 5.7 5.8 6.0 6.5 6.9 7.3 7.5 7.6 7.7 7.7 7.9 8.1 8.3 8.2 8.2 8.2 8.2 8.2 8.3 8.2 8.0 8.1 8.5 8.6 8.6 8.4 8.6 8.7 8.7 8.7 9.1 8.7 9.0 9.2 9.2 9.3 9.3 8.7 8.1 7.6 7.5
5.2 5.3 5.6 5.7 5.6 5.8 6.0 6.4 6.7 7.0 7.4 7.6 7.6 7.7 7.7 7.9 8.1 8.3 8.4 8.2 8.1 8.1 8.0 8.0 7.9 8.1 8.3 8.4 8.6 8.5 8.5 8.6 8.7 8.8 8.8 9.0 8.9 9.1 9.1 9.2 9.1 8.3 7.7 7.7 7.5
5.2 5.3 5.4 5.5 5.7 5.8 5.9 6.3 6.7 7.1 7.3 7.5 7.6 7.6 7.6 7.7 8.0 8.1 8.2 8.1 7.9 7.9 8.1 7.8 7.7 7.7 8.0 8.1 8.1 8.4 8.7 8.8 8.8 8.9 8.9 9.0 9.1 9.2 9.1 8.9 8.4 8.1 7.9 7.4 7.2
5.1 5.3 5.5 5.7 5.6 5.7 6.0 6.3 6.6 6.9 7.2 7.4 7.5 7.5 7.6 7.6 7.5 7.5 7.6 7.6 7.4 7.6 7.9 7.8 7.9 7.8 7.8 7.8 7.7 7.9 8.4 8.7 8.7 8.8 9.0 8.9 9.0 9.0 8.9 8.3 8.1 7.8 7.6 7.6 7.3
Wind_Speed
17 17 17 17 15 14 14 14 13 13 14 13 12 14 13 14 10 2 5 4 8 20 12 8 4 6 1 3 2 0 2 4 4 8 8 12 7 5 4 12 4 4 11 15 17
17 17 17 17 16 14 14 14 14 13 14 12 12 12 12 13 2 6 3 17 27 21 12 12 7 6 2 2 2 2 1 2 3 5 9 12 10 9 8 9 7 13 15 19 16
18 18 18 17 16 15 14 15 14 13 12 12 12 11 9 9 1 4 11 20 24 21 9 4 7 4 3 1 2 2 1 3 3 7 15 13 11 5 12 6 8 22 22 19 16
19 19 18 18 17 15 15 15 14 14 12 11 11 9 8 2 3 2 17 23 19 16 7 6 4 1 1 2 3 1 3 3 8 11 12 12 11 12 1 1 14 19 19 18 16
19 19 18 18 18 17 16 15 15 13 11 10 10 7 2 2 2 6 15 17 16 10 6 2 3 2 2 1 1 1 3 5 9 11 11 11 8 10 5 13 19 18 17 17 15
19 19 19 19 18 17 17 15 15 13 10 9 8 4 2 3 3 11 16 14 7 8 3 3 3 1 3 2 2 2 9 14 10 10 8 9 6 2 7 16 17 19 17 15 15
19 19 19 19 19 18 17 15 15 12 8 8 5 3 2 4 2 13 13 7 7 6 4 4 2 3 1 0 3 4 17 12 8 6 4 11 5 0 12 16 17 17 15 15 14
20 20 20 19 19 18 18 16 15 12 8 4 3 3 3 4 13 13 8 5 5 0 4 1 3 2 1 1 1 6 5 4 6 8 8 3 2 5 14 17 17 16 14 14 16
20 20 21 19 19 18 19 18 13 5 2 6 3 2 4 2 9 10 5 6 4 5 1 4 1 1 0 2 4 3 5 6 8 6 6 9 2 8 15 15 16 16 15 14 13
23 22 20 18 17 17 19 11 5 3 2 2 3 3 2 4 7 9 4 10 4 3 3 3 1 2 3 2 2 2 4 3 6 4 10 10 7 11 16 17 16 16 15 14 15
23 22 19 18 16 14 8 2 2 2 1 1 1 2 4 8 8 9 7 7 4 4 2 1 1 3 7 4 1 4 5 4 4 2 5 8 8 11 16 16 15 16 15 16 17
22 21 19 17 16 7 2 2 4 2 0 1 3 3 2 3 6 10 11 7 6 4 3 3 2 3 3 3 6 5 5 5 4 3 3 2 9 11 17 21 20 19 18 19 18
23 21 19 17 11 2 1 2 3 1 1 1 2 3 3 6 5 14 16 6 4 4 5 4 1 9 5 7 9 12 10 7 2 3 4 6 8 11 14 17 18 18 17 18 19
22 20 17 16 2 1 1 1 6 4 2 3 4 3 5 4 4 7 18 7 5 8 6 5 4 5 7 8 10 8 6 9 5 3 4 5 5 3 10 17 20 20 19 20 20
24 20 15 6 1 2 2 6 5 2 4 4 4 2 3 6 9 7 12 8 8 6 5 2 3 1 5 3 11 1 2 5 5 3 3 1 3 3 3 10 18 20 22 21 21
24 18 9 2 2 3 6 1 1 1 1 3 3 5 6 2 3 5 8 4 2 5 5 7 2 4 1 5 9 14 13 9 5 1 4 4 5 8 3 1 1 13 20 21 19
26 17 5 2 2 7 3 1 0 1 2 2 2 3 5 5 3 4 9 9 7 4 8 4 8 2 4 9 10 2 7 0 1 2 4 3 6 10 4 5 5 12 14 20 19
26 2 5 3 6 8 1 2 2 0 2 1 2 4 5 4 2 2 6 11 3 2 2 4 6 4 5 12 10 15 5 6 8 6 4 3 6 4 2 4 6 8 9 15 17
15 1 2 5 1 1 2 1 3 4 1 2 2 3 2 2 2 3 4 4 6 10 9 5 6 2 4 4 6 7 8 3 3 2 4 4 6 8 4 2 6 10 11 10 11
1 2 4 4 6 1 2 2 2 3 2 2 2 2 4 4 5 3 3 1 4 4 4 5 9 9 3 4 3 5 6 4 3 6 9 7 5 9 7 4 4 6 6 8 11
1 3 3 7 2 4 1 2 4 5 5 2 3 3 2 4 3 3 4 1 1 3 3 4 4 13 2 7 13 5 4 2 2 3 11 14 6 2 3 3 4 2 4 6 8
2 3 3 2 2 1 1 1 3 3 1 2 2 2 2 2 3 2 3 2 1 1 1 2 2 7 14 1 2 2 10 10 8 6 4 5 5 1 2 5 7 6 5 6 7
2 1 2 2 2 2 3 2 2 3 3 1 2 3 3 3 2 1 1 1 3 1 3 5 3 5 7 4 3 5 4 4 3 2 7 8 6 3 4 6 6 7 8 7 8
1 1 3 4 2 1 3 3 3 3 1 2 3 2 3 2 3 2 0 2 5 1 4 5 3 7 11 5 2 4 4 4 6 5 5 7 5 7 7 6 7 7 8 8 8
4 2 1 2 3 3 1 4 3 3 4 4 3 3 3 2 1 1 2 3 2 5 3 3 8 5 5 4 4 2 3 6 8 3 6 3 4 3 9 9 9 8 7 7 7
3 2 1 1 2 2 3 3 3 3 2 2 3 3 2 3 4 4 4 4 5 1 1 1 3 4 5 1 2 2 2 3 2 3 5 3 5 1 9 12 10 9 7 6 5
2 1 2 2 2 1 2 3 1 5 3 2 0 2 4 1 2 4 4 2 2 3 1 3 5 5 7 0 3 4 2 2 1 2 3 2 4 9 10 10 11 10 8 9 7
Wind_Direction
351 349 345 343 347 344 338 334 331 328 326 333 335 330 332 329 318 206 223 168 168 166 147 143 152 130 86 88 74 39 57 129 150 173 147 149 134 78 114 131 116 170 152 143 150
347 345 342 340 343 342 336 329 326 328 326 335 328 325 328 333 270 243 280 153 149 160 152 162 164 157 84 90 92 40 79 163 175 156 151 158 141 128 149 131 108 115 123 139 153
343 341 338 337 338 340 333 325 324 326 326 327 321 323 328 323 223 228 155 150 159 167 164 166 151 188 85 45 106 87 53 355 201 139 147 143 134 127 147 176 179 156 148 155 163
339 338 337 336 337 337 332 325 323 321 323 319 314 321 318 209 166 156 146 151 162 173 167 167 205 161 87 65 141 220 271 266 132 140 143 147 126 131 115 119 149 152 153 158 169
338 336 335 335 336 334 329 324 320 319 317 311 309 318 240 186 275 116 142 147 163 173 172 188 246 70 55 35 198 215 353 76 128 127 129 130 138 133 79 127 141 151 159 168 174
337 335 335 333 333 332 326 324 317 314 310 300 300 302 213 150 346 147 153 159 180 179 198 234 332 253 87 30 349 358 112 110 110 110 124 128 128 138 132 144 148 160 171 176 181
337 335 335 332 330 328 324 321 312 307 297 289 280 249 202 40 87 138 140 158 184 194 311 245 38 2 5 195 2 130 105 94 106 108 104 129 154 162 150 161 158 172 177 181 192
335 334 332 330 330 326 322 319 305 295 287 231 209 225 89 350 138 126 142 119 149 281 265 70 66 108 30 234 78 123 94 135 166 163 163 209 237 146 165 170 171 178 185 192 197
327 330 330 328 327 326 321 318 301 284 228 152 175 259 104 147 138 148 180 148 100 293 229 154 151 63 114 67 133 43 156 153 177 198 166 200 223 172 176 182 181 185 192 201 201
322 329 329 330 328 326 322 314 97 141 160 214 239 187 173 164 143 160 138 147 176 189 168 202 38 72 25 60 181 206 179 175 179 186 190 200 233 179 184 189 193 195 196 206 214
327 333 330 330 327 325 329 183 176 126 179 319 70 69 121 115 129 170 164 155 194 197 226 60 124 158 154 185 192 229 248 184 161 89 195 226 248 200 192 198 198 203 204 211 220
330 334 334 331 329 316 198 148 104 53 109 231 261 282 228 181 134 164 169 177 184 197 175 206 254 171 181 221 267 235 254 246 128 91 209 249 237 198 197 207 205 200 204 214 224
332 334 334 331 333 186 281 110 106 349 115 310 188 200 180 184 160 173 181 178 208 198 218 240 124 137 195 240 246 259 269 263 306 149 120 297 266 206 208 216 218 219 214 213 222
333 332 332 329 280 332 199 96 313 200 63 168 206 197 142 172 187 160 188 180 192 229 211 247 285 256 222 243 225 257 258 249 238 240 280 357 297 268 219 216 212 217 218 219 217
332 331 326 314 3 182 68 330 128 220 163 138 151 74 147 194 134 178 190 192 209 188 189 173 178 111 314 274 182 312 178 139 130 124 285 167 279 273 259 225 221 223 219 221 221
333 327 316 141 227 288 329 156 234 284 156 146 128 156 159 197 111 120 180 214 236 210 239 260 295 282 125 59 155 123 107 88 74 77 258 240 227 286 259 137 269 232 230 226 223
332 326 193 200 111 333 306 106 85 206 340 119 157 170 177 158 148 162 173 197 211 212 253 284 265 221 165 102 150 188 172 245 235 218 272 120 191 254 252 313 308 292 266 236 219
333 44 195 253 314 340 199 101 198 284 263 43 98 112 192 166 139 136 155 206 197 186 226 266 248 213 170 210 200 194 225 248 250 239 278 133 232 245 309 322 348 347 288 239 226
328 121 100 354 290 205 87 161 216 198 354 3 85 151 144 175 167 172 193 218 210 186 227 202 243 254 219 155 192 167 207 267 240 88 266 235 265 268 240 300 10 20 36 49 53
57 77 27 326 335 50 95 230 244 226 272 189 162 224 163 153 171 185 175 117 154 199 247 204 264 263 250 156 93 242 133 194 213 247 252 230 250 260 219 205 36 16 53 65 70
46 79 0 326 315 49 180 249 272 250 235 198 155 135 159 143 143 152 171 90 227 107 173 159 236 254 262 222 240 180 209 189 234 255 266 274 263 230 250 195 151 119 101 102 104
31 73 14 291 59 37 56 288 322 307 126 283 85 95 116 110 116 139 145 165 81 186 276 82 219 257 254 2 330 249 235 215 240 231 244 287 270 65 137 145 141 152 146 107 66
54 355 30 284 67 31 328 299 271 318 13 49 94 30 51 73 112 89 191 214 175 222 187 178 222 265 252 162 163 220 181 183 168 206 229 269 279 137 143 147 138 143 103 93 95
40 80 16 53 33 38 359 12 337 327 52 54 106 129 109 83 34 161 271 298 342 130 97 174 189 254 263 298 331 207 185 194 222 220 246 251 286 191 174 170 141 101 94 98 97
18 66 24 19 53 28 328 341 337 22 21 20 86 78 130 131 134 225 226 278 229 128 84 216 257 207 262 287 258 217 209 190 202 226 246 339 273 7 174 171 133 126 121 129 125
42 359 39 60 306 319 355 22 353 347 335 37 149 152 137 167 216 222 223 222 261 120 144 164 231 207 221 132 329 257 193 184 184 175 237 264 278 181 147 124 138 147 157 166 156
28 72 296 33 357 285 28 332 312 335 211 330 325 174 215 248 340 312 279 312 309 281 206 239 173 192 228 155 321 231 354 298 298 253 295 274 28 153 158 166 159 162 172 175 174